Tracking 28309 objects as of 1-Dec-2023
HD Live streaming from Space Station
objects crossing your sky now

TEVEL 1

Track TEVEL 1 now!
10-day predictions
TEVEL 1 is classified as:


NORAD ID: 51013
Int'l Code: 2022-002AF
Perigee: 463.9 km
Apogee: 472.1 km
Inclination: 97.4 °
Period: 93.8 minutes
Semi major axis: 6839 km
RCS: Unknown
Launch date: January 13, 2022
Source: Israel (ISRA)
Launch site: AIR FORCE EASTERN TEST RANGE (AFETR)

Uplink (MHz): 145.970
Downlink (MHz): 436.400
Beacon (MHz):
Mode: 9600bps BPSK FM
Call sign: T1OFK
Status: Active

Your satellite tracking list
Your tracking list is empty




NASA's NSSDC Master Catalog

Two Line Element Set (TLE):
1 51013U 22002AF  23334.79014199  .00048288  00000-0  14158-2 0  9992
2 51013  97.4117  41.3512 0006006  14.0874 346.0535 15.35016951104224
Source of the keplerian elements: AMSAT